Weather History for Bogalusa, LA

Change the Weather History Date:

Wednesday, December 4, 2013

  Actual Average Record
Temperature  
Mean Temperature 76 °F -  
Max Temperature 81 °F 65 °F 81 °F (2013)
Min Temperature 70 °F 41 °F 50 °F (2014)
Cooling Degree Days 10    
Growing Degree Days 26 (Base 50)    
Moisture  
Dew Point 67 °F    
Average Humidity 79    
Maximum Humidity 88    
Minimum Humidity 59    
Precipitation  
Precipitation 0.00 in - - ()
Sea Level Pressure  
Sea Level Pressure 29.90 in    
Wind  
Wind Speed 8 mph (SSW)    
Max Wind Speed 16 mph    
Max Gust Speed 22 mph    
Visibility 9 miles    
Events      
Averages and records for this station are not official NWS values.
T = Trace of Precipitation, MM = Missing Value Source: NWS Daily Summary

Daily Weather History Graph

Daily Weather History Graph

Search for Another Location

Airport:

Trip Planner

Search our weather history database for the weather conditions in past years. The results will help you decide how hot, cold, wet, or windy it might be!

Date:

Astronomy

Dec. 04, 2013 Rise Set
Actual Time 6:42 AM CST 4:57 PM CST
Civil Twilight 6:15 AM CST 5:23 PM CST
Nautical Twilight 5:45 AM CST 5:53 PM CST
Astronomical Twilight 5:16 AM CST 6:23 PM CST
Moon 8:12 AM CST (12/4) 7:04 PM CST (12/4)
Length of Visible Light 11h 08m
Length of Day
10h 15m
Waxing Crescent, 4% of the Moon is Illuminated
Dec 4
Waxing Crescent
Dec 9
First Quarter
Dec 17
Full
Dec 25
Last Quarter
Jan 1
New

Hourly Weather History & Observations

Time (CST) Temp. Heat Index Dew Point Humidity Pressure Visibility Wind Dir Wind Speed Gust Speed Precip Events Conditions
12:15 AM 70.7 °F - 66.4 °F 86% 29.84 in 10.0 mi SSW 8.1 mph - N/A   Mostly Cloudy
12:35 AM 70.7 °F - 66.4 °F 86% 29.84 in 7.0 mi SSW 8.1 mph - N/A   Mostly Cloudy
12:55 AM 70.9 °F - 66.4 °F 86% 29.85 in 10.0 mi SSW 8.1 mph - N/A   Overcast
1:15 AM 71.1 °F - 66.4 °F 85% 29.85 in 10.0 mi SSW 6.9 mph - N/A   Overcast
1:40 AM 71.1 °F - 66.6 °F 86% 29.85 in 7.0 mi SSW 5.8 mph - N/A   Overcast
1:55 AM 71.1 °F - 66.6 °F 86% 29.85 in 7.0 mi SSW 8.1 mph - N/A   Overcast
2:15 AM 71.2 °F - 66.6 °F 85% 29.85 in 7.0 mi SSW 5.8 mph - N/A   Overcast
2:35 AM 71.2 °F - 66.6 °F 85% 29.85 in 7.0 mi SSW 5.8 mph - N/A   Overcast
2:55 AM 71.1 °F - 66.6 °F 86% 29.85 in 7.0 mi SSW 8.1 mph - N/A   Overcast
3:20 AM 71.1 °F - 66.6 °F 86% 29.86 in 7.0 mi SSW 6.9 mph - N/A   Mostly Cloudy
3:35 AM 71.1 °F - 66.7 °F 86% 29.86 in 7.0 mi South 4.6 mph - N/A   Overcast
3:55 AM 70.9 °F - 66.7 °F 87% 29.86 in 7.0 mi South 4.6 mph - N/A   Overcast
4:15 AM 71.2 °F - 67.1 °F 87% 29.85 in 7.0 mi SSW 8.1 mph - N/A   Overcast
4:35 AM 71.1 °F - 67.1 °F 87% 29.85 in 7.0 mi South 5.8 mph - N/A   Overcast
4:55 AM 71.2 °F - 67.1 °F 87% 29.86 in 7.0 mi SSW 5.8 mph - N/A   Overcast
5:15 AM 70.9 °F - 66.9 °F 87% 29.86 in 5.0 mi SSW 5.8 mph - N/A   Overcast
5:35 AM 71.1 °F - 66.9 °F 87% 29.86 in 5.0 mi SSW 3.5 mph - N/A   Overcast
5:55 AM 71.2 °F - 67.1 °F 87% 29.87 in 7.0 mi South 4.6 mph - N/A   Overcast
6:15 AM 71.2 °F - 67.1 °F 87% 29.88 in 5.0 mi South 4.6 mph - N/A   Overcast
6:35 AM 71.4 °F - 67.1 °F 86% 29.88 in 7.0 mi SSW 6.9 mph - N/A   Overcast
6:55 AM 71.6 °F - 67.1 °F 86% 29.89 in 7.0 mi SSW 5.8 mph - N/A   Overcast
7:15 AM 71.8 °F - 67.1 °F 85% 29.90 in 7.0 mi South 5.8 mph - N/A   Overcast
7:35 AM 72.0 °F - 67.3 °F 85% 29.90 in 10.0 mi South 9.2 mph - N/A   Overcast
7:55 AM 72.3 °F - 67.3 °F 84% 29.92 in 10.0 mi SSW 5.8 mph - N/A   Overcast
8:15 AM 72.7 °F - 67.5 °F 84% 29.92 in 10.0 mi SSW 5.8 mph - N/A   Overcast
8:35 AM 73.0 °F - 67.5 °F 83% 29.93 in 10.0 mi SSW 9.2 mph - N/A   Overcast
8:55 AM 73.6 °F - 67.8 °F 82% 29.95 in 10.0 mi SSW 8.1 mph - N/A   Overcast
9:15 AM 74.3 °F - 68.0 °F 81% 29.95 in 10.0 mi SSW 6.9 mph - N/A   Overcast
9:35 AM 75.0 °F - 68.0 °F 79% 29.96 in 10.0 mi South 5.8 mph - N/A   Mostly Cloudy
9:55 AM 75.6 °F - 68.0 °F 77% 29.97 in 10.0 mi SW 10.4 mph 16.1 mph N/A   Overcast
10:15 AM 76.1 °F - 67.8 °F 75% 29.96 in 10.0 mi SSW 11.5 mph - N/A   Overcast
10:35 AM 76.8 °F - 67.6 °F 73% 29.95 in 10.0 mi SSW 12.7 mph 18.4 mph N/A   Overcast
10:55 AM 77.2 °F - 67.3 °F 71% 29.95 in 10.0 mi SW 12.7 mph 19.6 mph N/A   Overcast
11:15 AM 77.5 °F - 67.3 °F 71% 29.94 in 10.0 mi SW 10.4 mph - N/A   Mostly Cloudy
11:35 AM 79.5 °F - 67.5 °F 66% 29.93 in 10.0 mi SSW 12.7 mph 20.7 mph N/A   Scattered Clouds
11:55 AM 79.5 °F - 67.1 °F 66% 29.92 in 10.0 mi SSW 8.1 mph - N/A   Scattered Clouds
12:15 PM 80.8 °F 83.1 °F 66.6 °F 62% 29.91 in 10.0 mi SSW 10.4 mph 19.6 mph N/A   Scattered Clouds
12:35 PM 80.6 °F 82.7 °F 66.2 °F 61% 29.90 in 10.0 mi SW 16.1 mph 21.9 mph N/A   Scattered Clouds
12:55 PM 80.6 °F 82.8 °F 66.4 °F 62% 29.89 in 10.0 mi SSW 15.0 mph 21.9 mph N/A   Unknown
1:15 PM 81.0 °F 83.3 °F 66.7 °F 62% 29.88 in 10.0 mi South 10.4 mph - N/A   Unknown
1:35 PM 80.2 °F 82.2 °F 65.7 °F 61% 29.87 in 10.0 mi SSW 13.8 mph 19.6 mph N/A   Unknown
1:55 PM 81.5 °F 83.7 °F 66.2 °F 60% 29.87 in 10.0 mi SW 13.8 mph 20.7 mph N/A   Unknown
2:15 PM 81.5 °F 83.6 °F 66.0 °F 59% 29.87 in 10.0 mi SSW 11.5 mph 19.6 mph N/A   Unknown
2:35 PM 81.0 °F 83.2 °F 66.2 °F 61% 29.87 in 10.0 mi South 12.7 mph 18.4 mph N/A   Unknown
2:55 PM 80.6 °F 82.7 °F 66.2 °F 61% 29.86 in 10.0 mi SSW 9.2 mph - N/A   Unknown
3:15 PM 79.7 °F - 66.2 °F 63% 29.86 in 10.0 mi SSW 8.1 mph - N/A   Unknown
3:35 PM 79.0 °F - 66.9 °F 66% 29.86 in 10.0 mi South 8.1 mph - N/A   Unknown
3:55 PM 78.8 °F - 66.6 °F 66% 29.86 in 10.0 mi South 9.2 mph - N/A   Unknown
4:15 PM 77.9 °F - 66.6 °F 68% 29.86 in 10.0 mi South 9.2 mph - N/A   Clear
4:35 PM 77.4 °F - 66.6 °F 69% 29.86 in 10.0 mi South 6.9 mph - N/A   Clear
4:55 PM 76.5 °F - 66.9 °F 72% 29.86 in 10.0 mi South 6.9 mph - N/A   Clear
5:15 PM 76.1 °F - 67.1 °F 74% 29.87 in 10.0 mi South 8.1 mph - N/A   Clear
5:35 PM 75.4 °F - 67.1 °F 75% 29.87 in 10.0 mi South 6.9 mph - N/A   Clear
5:55 PM 74.3 °F - 66.6 °F 77% 29.87 in 10.0 mi SSE 5.8 mph - N/A   Clear
6:15 PM 74.3 °F - 67.3 °F 79% 29.88 in 10.0 mi SSE 5.8 mph - N/A   Scattered Clouds
6:35 PM 73.4 °F - 67.6 °F 82% 29.89 in 10.0 mi South 5.8 mph - N/A   Clear
6:55 PM 73.0 °F - 68.0 °F 84% 29.89 in 10.0 mi SSE 4.6 mph - N/A   Clear
7:15 PM 72.7 °F - 68.2 °F 86% 29.90 in 10.0 mi South 5.8 mph - N/A   Scattered Clouds
7:35 PM 72.3 °F - 68.2 °F 87% 29.90 in 10.0 mi SSE 4.6 mph - N/A   Scattered Clouds
7:55 PM 72.3 °F - 68.4 °F 87% 29.91 in 7.0 mi South 5.8 mph - N/A   Mostly Cloudy
8:15 PM 72.5 °F - 68.9 °F 88% 29.92 in 7.0 mi South 3.5 mph - N/A   Overcast
8:35 PM 72.9 °F - 68.9 °F 87% 29.93 in 7.0 mi SSW 6.9 mph - N/A   Overcast
8:55 PM 72.9 °F - 69.1 °F 88% 29.93 in 7.0 mi South 9.2 mph - N/A   Overcast
9:15 PM 73.4 °F - 69.3 °F 87% 29.94 in 7.0 mi South 10.4 mph - N/A   Overcast
9:35 PM 73.2 °F - 69.3 °F 87% 29.94 in 7.0 mi SSW 6.9 mph - N/A   Overcast
9:55 PM 73.4 °F - 69.1 °F 86% 29.94 in 7.0 mi South 6.9 mph - N/A   Overcast
10:15 PM 73.4 °F - 69.3 °F 87% 29.95 in 10.0 mi SSW 6.9 mph - N/A   Overcast
10:35 PM 73.4 °F - 69.1 °F 86% 29.95 in 10.0 mi South 6.9 mph - N/A   Overcast
10:55 PM 73.4 °F - 69.1 °F 86% 29.95 in 10.0 mi South 5.8 mph - N/A   Overcast
11:15 PM 73.4 °F - 69.3 °F 87% 29.96 in 7.0 mi SSW 5.8 mph - N/A   Overcast
11:35 PM 73.4 °F - 69.3 °F 87% 29.96 in 10.0 mi SSW 6.9 mph - N/A   Overcast
11:55 PM 73.4 °F - 69.3 °F 87% 29.96 in 10.0 mi SSW 4.6 mph - N/A   Overcast